Location: Seagrave Observatory
(41.8500°N, 71.5833°W)
Time: 01:26:26
(UTC-04:00)

Daily predictions for brighter satellites

Satellite Brightness Start Highest point End
(mag) Time Altitude Azimuth Time Altitude Azimuth Time Altitude Azimuth
Meteor 1-26 Rocket 4.3 00:00:07 10° NNW 00:05:41 67° W 00:06:52 53° SSW
Aureole 2 Rocket 3.7 00:04:11 10° NNW 00:06:17 38° N 00:06:17 38° N
Cosmos 1674 Rocket 4.4 00:05:04 10° N 00:09:14 38° ENE 00:09:19 38° E
Cosmos 2084 Rocket 4.5 00:12:58 33° ENE 00:12:58 33° ENE 00:15:14 10° NE
Cosmos 921 Rocket 4.4 00:13:23 27° ENE 00:13:23 27° ENE 00:16:09 10° NE
CZ-4C R/B 3.9 00:15:17 48° NNW 00:15:17 48° NNW 00:18:00 10° NNW
ATLAS 2AS CENTAUR R/B 3.8 00:07:26 10° WSW 00:14:47 50° NW 00:22:38 10° NNE
Cosmos 2237 Rocket 4.0 00:16:43 10° WNW 00:20:27 18° W 00:21:31 17° WSW
Cosmos 44 Rocket 3.6 00:22:33 50° WSW 00:23:47 69° NW 00:29:02 10° NNE
CZ-4C R/B 3.4 00:18:09 10° NNW 00:25:00 52° NE 00:29:59 22° ESE
Cosmos 2154 Rocket 4.2 00:23:50 49° SE 00:25:11 60° E 00:31:22 10° NNE
Cosmos 1932 4.4 00:21:09 10° NW 00:27:34 84° WSW 00:29:08 55° SSE
Cosmos 1892 3.3 00:30:53 56° N 00:30:53 56° N 00:33:56 10° N
ATLAS 3B R/B 3.1 00:23:49 10° NW 00:30:15 42° WSW 00:31:15 40° SW
Lacrosse 4 Rocket 2.9 00:26:34 10° NW 00:29:44 28° W 00:29:44 28° W
Cosmos 1356 Rocket 3.8 00:35:06 58° NE 00:35:06 58° NE 00:38:31 10° NNE
Meteor 2-3 Rocket 4.1 00:33:21 44° SW 00:34:49 56° WNW 00:40:27 10° N
Cosmos 2184 Rocket 4.3 00:35:13 42° SW 00:37:03 57° W 00:43:09 10° N
MOS 1-B Rocket 3.9 00:38:04 51° SE 00:39:24 67° ENE 00:44:57 10° N
USA 238 DEB 3.6 00:33:08 10° NW 00:40:10 76° WSW 00:42:03 51° SSE
USA 238 3.6 00:33:14 10° NW 00:40:16 77° WSW 00:42:11 51° SSE
Cosmos 1408 4.4 00:43:12 25° ENE 00:43:12 25° ENE 00:45:35 10° NNE
Meteor 1-10 Rocket 4.2 00:36:49 10° N 00:42:48 87° W 00:43:54 62° S
Geosat 3.9 00:39:19 10° NNE 00:44:22 71° ESE 00:44:34 70° SE
Cosmos 2251 Rocket 3.6 00:40:21 10° NNW 00:45:36 61° WSW 00:45:53 60° WSW
Cosmos 1689 Rocket 4.2 00:47:10 28° NW 00:47:10 28° NW 00:49:01 10° NNW
Landsat 5 4.1 00:51:59 51° W 00:51:59 51° W 00:56:09 10° NNW
Okean 3 4.4 00:48:01 10° N 00:52:06 40° ENE 00:52:10 40° E
COSMOS 2455 4.2 00:48:32 10° NW 00:53:09 23° WSW 00:53:21 23° WSW
Cosmos 1825 3.5 00:54:20 33° ENE 00:54:20 33° ENE 00:57:04 10° NNE
Sich 1 Rocket 3.6 00:56:52 82° NW 00:56:52 82° NW 01:01:16 10° N
Cosmos 1733 Rocket 3.7 00:58:01 47° W 00:58:03 47° WNW 01:02:22 10° N
CZ-2C R/B 3.7 00:56:36 42° ESE 00:58:11 56° ENE 01:03:40 10° N
Cosmos 2341 Rocket 4.0 00:56:56 56° S 00:58:26 85° E 01:04:51 10° N
H-2A R/B 3.7 00:55:18 10° N 00:59:08 34° WNW 00:59:30 33° W
GEOS 3 Rocket 4.2 01:03:03 41° WSW 01:03:03 41° WSW 01:07:33 10° NW
Cosmos 2263 Rocket 2.6 01:02:46 45° ESE 01:03:15 46° ESE 01:08:39 10° NE
Cosmos 962 Rocket 4.3 01:03:15 58° SSW 01:04:33 87° W 01:10:43 10° N
Cosmos 1867 4.4 00:59:48 10° NNW 01:05:06 47° NE 01:07:41 27° ESE
SeaSat 1 4.2 01:09:19 19° W 01:09:19 19° W 01:12:15 10° WNW
ALOS 2 4.2 01:09:14 24° W 01:09:14 24° W 01:12:24 10° NW
CZ-4B R/B 3.8 01:10:44 17° WNW 01:10:44 17° WNW 01:12:06 10° NW
Cosmos 1782 3.8 01:05:58 10° NNW 01:09:01 40° WNW 01:09:01 40° WNW
Cosmos 494 Rocket 4.2 01:04:49 10° NNW 01:09:57 54° WSW 01:10:05 53° WSW
Cosmos 1378 Rocket 3.5 01:06:16 10° N 01:10:26 80° N 01:10:26 80° N
SL-8 Rocket 4.1 01:10:30 49° SSE 01:12:02 65° E 01:18:18 10° NNE
SL-16 R/B 4.2 01:10:48 10° WNW 01:13:47 15° W 01:13:53 15° W
NOSS 3-2 (C) 4.1 01:06:23 10° NNW 01:13:52 71° NE 01:19:14 23° SE
Coronas F rocket 4.4 01:15:30 13° NNW 01:15:30 13° NNW 01:16:04 10° NNW
Cosmos 1340 Rocket 4.5 01:16:02 24° WNW 01:16:02 24° WNW 01:19:10 10° NNW
Helios 1A Rocket 3.8 01:12:55 10° N 01:16:50 40° WNW 01:16:52 40° WNW
Cosmos 1238 Rocket 3.6 01:16:29 10° NNW 01:19:25 42° NW 01:19:25 42° NW
Cosmos 2218 Rocket 4.2 01:20:12 48° SSE 01:21:50 64° E 01:28:06 10° NNE
Cosmos 1242 Rocket 4.3 01:22:44 10° NNE 01:25:36 25° ENE 01:25:36 25° ENE
Cosmos 44 4.2 01:24:33 36° W 01:26:17 49° NW 01:31:35 10° NNE
CZ-2C R/B 2.7 01:21:30 10° N 01:26:40 62° WNW 01:27:31 54° WSW
Okean 2 Rocket 3.0 01:34:32 86° SW 01:34:37 87° WNW 01:39:09 10° N
RESURS DK-1 2.9 01:35:07 50° E 01:35:07 50° E 01:38:44 10° NE
Cosmos 1782 Rocket 3.5 01:35:34 71° WNW 01:35:34 71° WNW 01:39:54 10° N
Cosmos 2366 rocket 4.0 01:33:53 49° SSE 01:35:32 71° E 01:41:42 10° NNE
NOSS 3-4 (A) 3.5 01:34:20 49° SW 01:36:16 87° NW 01:42:53 10° NE
NOSS 3-4 (C) 3.5 01:34:26 49° SW 01:36:21 88° WNW 01:42:59 10° NE
NOSS 3-2 (A) 3.9 01:29:23 10° NW 01:36:54 77° WSW 01:40:29 37° SSE
Cosmos 1943 3.2 01:31:54 10° NNW 01:37:31 61° WSW 01:38:09 57° SW
Meteor 1-27 Rocket 4.1 01:32:03 10° NNW 01:37:40 50° W 01:38:31 46° WSW
PSLV R/B 4.2 01:46:14 55° WNW 01:46:14 55° WNW 01:49:46 10° NNW
Cosmos 1606 4.4 01:45:45 10° NNW 01:48:09 24° WNW 01:48:09 24° WNW
Meteor 1-14 Rocket 4.4 01:47:57 49° SSE 01:49:35 72° E 01:55:27 10° NNE
BREEZE-M DEB (TANK) 4.3 01:38:57 10° WSW 01:55:21 63° NNW 01:59:39 10° NE
Cosmos 864 Rocket 4.4 01:55:52 49° SSW 01:57:41 83° W 02:03:52 10° N
Cosmos 1975 Rocket 3.7 01:53:34 10° NNW 01:57:28 41° W 01:57:28 41° W
Cosmos 1727 Rocket 3.9 01:51:28 10° N 01:57:43 88° W 01:59:48 45° S
Cosmos 1371 Rocket 4.0 02:01:58 55° SW 02:03:09 78° WNW 02:08:32 10° NNE
Cosmos 2056 Rocket 3.5 02:03:05 56° S 02:04:13 80° ESE 02:09:29 10° NNE
NPP 4.4 02:02:40 10° NNE 02:07:49 43° E 02:09:42 32° SE
Cosmos 407 Rocket 3.9 02:04:04 10° NNW 02:09:10 59° ENE 02:11:50 28° SE
Cosmos 1536 Rocket 3.5 02:05:18 10° N 02:09:43 79° E 02:10:23 62° SSE
CZ-4C R/B 3.4 02:06:56 10° NW 02:13:33 39° WSW 02:15:06 36° SW
Meteor 1-18 Rocket 4.3 02:09:32 10° N 02:15:13 80° E 02:17:37 37° SSE
JB-3 4.1 02:13:21 10° NNE 02:17:14 86° ESE 02:17:25 80° SSE
Gbstr 26 Del rocket 3.6 02:21:53 36° ESE 02:21:53 36° ESE 02:25:01 10° ENE
PSLV R/B 3.5 02:19:20 10° N 02:23:31 66° WNW 02:24:03 58° WSW
CZ-2D R/B 4.4 02:22:30 10° NE 02:25:56 17° E 02:29:21 10° SE
Cosmos 909 Rocket 4.2 02:24:06 37° SW 02:26:55 77° WNW 02:34:22 10° NNE
ERS-2 2.9 02:23:36 10° NNE 02:27:09 42° E 02:27:41 39° SE
SL-27 R/B 2.8 02:25:40 10° NNW 02:29:19 67° ENE 02:29:56 54° ESE
Cosmos 1825 4.5 02:29:16 14° WNW 02:29:21 14° WNW 02:31:24 10° NW
Abrixas rocket 3.0 02:30:35 46° NW 02:31:00 49° NNW 02:34:17 10° NE
IRAS Rocket 4.3 02:26:45 10° NNE 02:32:17 74° ESE 02:34:32 37° S
Cosmos 2151 Rocket 4.0 02:33:02 42° WSW 02:33:43 46° WNW 02:38:02 10° N
Meteor 1-20 Rocket 4.3 02:31:21 38° S 02:33:43 85° E 02:39:32 10° N
Cosmos 1812 2.6 02:32:34 10° N 02:36:30 90° W 02:37:06 62° S
Cosmos 724 4.3 02:32:24 10° NNW 02:38:34 89° ENE 02:44:34 11° SSE
Cosmos 1000 Rocket 4.4 02:32:51 10° N 02:39:03 86° E 02:42:34 27° S
Okean 1-7 Rocket 3.9 02:35:09 10° N 02:39:43 68° E 02:41:47 32° SSE
SL-08 R/B 3.3 02:38:24 34° SSE 02:40:36 88° ENE 02:45:32 10° NNW
Okean 1 Rocket 3.1 02:40:14 44° S 02:41:34 76° E 02:46:03 10° NNE
Iridium 4 Rocket 3.8 02:37:35 10° NNW 02:42:08 48° W 02:43:23 39° SW
Cosmos 1844 Rocket 2.8 02:41:38 35° S 02:44:01 68° ESE 02:49:40 10° NNE
Cosmos 1954 Rocket 4.2 02:39:37 10° NNW 02:44:48 70° ENE 02:48:46 17° SSE
IRS-1C 4.3 02:39:32 10° NNE 02:44:51 64° ESE 02:47:26 30° S
USA 234 3.1 02:39:47 10° SE 02:46:20 80° SW 02:52:54 10° NW
Cosmos 2263 Rocket 3.6 02:44:27 19° W 02:47:22 28° NW 02:52:14 10° N
Cosmos 1844 4.0 02:52:11 29° S 02:54:59 62° ESE 03:00:40 10° NNE
AQUA 3.7 02:51:17 10° N 02:56:04 81° WNW 02:57:59 37° SSW
CENTAUR R/B 3.1 02:48:26 10° NW 02:56:19 86° NE 03:04:38 10° SE
SL-16 R/B 3.5 02:50:41 10° SE 02:56:35 47° ENE 03:02:30 10° N
Okean 1 3.4 02:54:38 10° NNW 02:58:33 56° W 02:59:23 45° SW
IRS-P3 4.4 02:54:52 10° N 03:00:05 55° WNW 03:02:28 31° SW
Cosmos 1605 Rocket 4.4 02:56:07 18° SSE 03:00:36 58° E 03:06:44 10° NNE
Cosmos 1821 Rocket 4.0 02:58:09 28° SSW 03:01:47 83° W 03:08:14 10° N
Cosmos 1400 Rocket 4.4 02:59:53 16° SE 03:02:15 29° E 03:05:41 10° NNE
GP-B 3.2 02:59:08 10° N 03:03:32 62° W 03:05:08 37° SSW
Cosmos 1025 Rocket 3.5 02:59:54 10° N 03:04:09 57° E 03:07:22 17° SSE
Meteor 2-21 Rocket 4.4 03:00:50 26° S 03:04:28 86° E 03:10:37 10° N
Cosmos 2123 Rocket 4.2 02:58:16 10° N 03:04:39 76° E 03:10:18 13° SSE
ATLAS 5 CENTAUR R/B 3.4 03:00:45 10° NNW 03:06:27 47° NE 03:12:33 10° ESE
Resurs 1-4 Rocket 3.2 03:02:30 10° NNE 03:07:27 38° E 03:11:47 13° SSE
COSMOS 2406 3.6 03:02:22 10° NW 03:07:50 45° WSW 03:10:25 28° SSW
Cosmos 2278 Rocket 2.7 03:04:52 23° S 03:08:16 53° ESE 03:13:47 10° NNE
ARIANE 5 R/B 3.0 03:04:41 10° NNE 03:09:35 53° E 03:13:00 19° S
Cosmos 1452 Rocket 3.7 03:07:41 31° SW 03:10:08 62° WNW 03:15:22 10° NNE
Cosmos 1023 Rocket 4.4 03:10:13 10° NNW 03:15:21 86° ENE 03:20:26 10° SSE
CBERS-1 4.4 03:14:06 10° N 03:19:05 51° WNW 03:21:44 26° SW
Cosmos 1356 4.4 03:17:16 21° SSE 03:19:16 44° E 03:22:40 10° NNE
Cosmos 1420 Rocket 4.0 03:17:15 25° SSW 03:20:22 84° ESE 03:25:42 10° NNE
ADEOS 3.6 03:17:36 10° N 03:22:49 69° WNW 03:25:56 24° SSW
Cosmos 1602 3.8 03:24:09 32° SSW 03:25:44 62° W 03:29:34 10° N
Cosmos 1633 2.6 03:24:31 27° S 03:26:22 76° E 03:30:01 10° N
Cosmos 2082 Rocket 4.0 03:21:13 10° N 03:26:25 34° ENE 03:31:34 10° ESE
Meteor 2-16 Rocket 4.4 03:24:32 21° SSW 03:28:49 76° W 03:35:00 10° N
Cosmos 1315 Rocket 4.1 03:26:31 11° SSE 03:30:03 38° E 03:33:48 10° NNE
Cosmos 1544 Rocket 3.8 03:28:06 18° S 03:31:19 70° E 03:35:42 10° NNE
COSMOS 2487 2.4 03:28:41 10° NNW 03:32:19 74° WSW 03:35:05 16° S
NOSS 2-2 (D) 3.6 03:32:27 26° SW 03:34:47 75° NW 03:39:36 10° NNE
Meteor 2-4 Rocket 3.6 03:30:05 10° N 03:35:31 87° E 03:40:52 10° S
Cosmos 1140 Rocket 3.5 03:31:09 10° NNW 03:36:13 61° WSW 03:41:15 10° S
USA 161 2.3 03:42:28 29° WSW 03:42:59 31° W 03:45:40 10° NNW
SME Rocket 2.9 03:39:22 10° SSE 03:43:05 86° ENE 03:47:19 10° NNW
BREEZE-M TANK 2.3 03:44:26 19° W 03:45:49 34° SSW 03:48:51 10° SE
Okean 2 3.4 03:43:26 10° N 03:47:33 87° E 03:51:40 10° S
NOSS 2-2 (C) 4.0 03:46:29 20° WSW 03:49:15 54° NW 03:54:02 10° NNE
Cosmos 1850 Rocket 4.1 03:46:55 10° NNW 03:52:04 58° WSW 03:57:13 10° S
Cosmos 1892 Rocket 3.6 03:49:52 10° NNW 03:54:09 59° W 03:58:14 11° S
Cosmos 1741 Rocket 4.1 03:49:18 10° NNW 03:54:28 58° WSW 03:59:35 10° S
Cosmos 1536 3.5 03:54:17 19° SW 03:56:46 38° WNW 04:00:35 10° N
Cosmos 2100 Rocket 4.3 03:50:46 10° S 03:56:57 70° E 04:03:15 10° NNE
UNKNOWN OBJECT B 3.0 03:53:18 10° NNE 03:57:24 82° E 04:01:16 11° S
ERS-2 4.4 03:58:39 10° NNW 04:00:35 14° WNW 04:02:32 10° W
UNK 4.0 04:00:10 10° S 04:04:38 50° W 04:09:11 10° NNW
CZ-2D R/B 2.3 04:01:02 10° N 04:06:26 65° WNW 04:11:41 11° SSW
Gbstr 26 Del rocket 3.8 04:04:37 10° W 04:08:17 36° NNW 04:11:47 10° NE
Abrixas rocket 4.4 04:05:43 10° WNW 04:08:35 25° N 04:11:27 10° ENE
Cosmos 1833 Rocket 3.5 04:03:18 10° NNW 04:08:50 56° ENE 04:14:19 10° SE
CZ-2D R/B 3.4 04:11:06 10° NNE 04:15:07 86° WNW 04:19:11 10° SSW
Cosmos 1461 3.9 04:11:59 12° WSW 04:15:59 41° NW 04:20:22 10° NNE
USA 129 1.5 04:14:15 10° SSE 04:16:21 85° WSW 04:18:25 10° NNW
IRS-1D 4.2 04:12:40 10° N 04:17:23 39° WNW 04:21:52 11° SW
EO 1 Del DPAF 4.2 04:14:19 11° SSW 04:17:37 29° W 04:21:04 10° NW
APEX 2.8 04:15:12 12° SSW 04:17:51 73° ESE 04:21:14 10° NNE
Timation 2 Rocket 4.0 04:13:11 10° NNW 04:19:10 55° WSW 04:24:58 10° S
MOZ.5/SAFIR/RUBIN 5/SL-8 4.1 04:19:06 10° SSE 04:23:52 75° ENE 04:28:39 10° N
Cosmos 1602 Rocket 3.5 04:20:33 10° N 04:24:53 79° W 04:29:14 10° S
Cosmos 2061 Rocket 4.1 04:20:58 10° SSW 04:27:16 76° W 04:33:42 10° N
Cosmos 1844 Rocket 4.4 04:24:18 10° W 04:28:27 20° NW 04:32:37 10° N
NOSS 5 (C) 4.2 04:26:01 10° SW 04:29:18 88° WNW 04:32:25 10° NE
USA 234 4.4 04:25:25 10° SSW 04:29:57 20° WSW 04:34:31 10° WNW
Okean O Rocket 1.6 04:26:33 10° N 04:30:55 79° WNW 04:35:14 10° SSW
Cosmos 1400 Rocket 4.5 04:36:02 10° WSW 04:38:49 19° WNW 04:41:39 10° NNW
PAYLOAD B 4.3 04:33:55 10° NNE 04:39:32 86° WNW 04:45:08 10° SSW
SL-16 R/B 3.4 04:35:06 10° SSW 04:40:22 29° W 04:45:40 10° NW
Cosmos 2098 Rocket 4.2 04:37:22 10° SSE 04:40:39 40° E 04:44:43 10° NNE
Cosmos 1626 Rocket 3.8 04:38:31 10° NNW 04:42:44 49° W 04:46:59 10° SSW
Cosmos 1455 Rocket 4.3 04:39:46 10° SW 04:43:34 27° WNW 04:47:22 10° NNW
Cosmos 1174 3.6 04:41:03 10° NW 04:44:30 44° WSW 04:47:28 10° S
Cosmos 1486 Rocket 4.1 04:39:27 10° NNW 04:44:49 89° WSW 04:50:09 10° SSE
CENTAUR R/B 4.1 04:40:30 10° WNW 04:46:21 23° WSW 04:52:22 10° SSW
